Skip Page Navigation
NASA JPL Caltech
NASA Logo - Jet Propulsion Laboratory + View the NASA Portal
+ Center for Near-Earth Object Studies
JPL Home Earth Solar System Stars & Galaxies Technology
JPL Solar System Dynamics
BODIES ORBITS EPHEMERIDES TOOLS PHYSICAL DATA DISCOVERY FAQ SITE MAP
JPL Small-Body Database Browser
Search: [ help ]  
136846 (1997 YV14)
Classification: Main-belt Asteroid          SPK-ID: 2136846
Ephemeris | Orbit Diagram | Orbital Elements | Mission Design | Physical Parameters | Discovery Circumstances ]

[ show orbit diagram ]
Orbital Elements at Epoch 2459000.5 (2020-May-31.0) TDB
Reference: JPL 14 (heliocentric ecliptic J2000)
 Element Value Uncertainty (1-sigma)   Units 
e .09506088022595098 5.5326e-08  
a 2.196571078459506 9.8715e-09 au
q 1.987763098262279 1.1894e-07 au
i 2.300092411971394 4.1309e-06 deg
node 301.2822991909204 0.00013938 deg
peri 268.3224271350295 0.000141 deg
M 229.2661098812345 2.3203e-05 deg
tp 2459432.319253185869
(2021-Aug-05.81925319)
7.7792e-05 TDB
period 1189.094358055816
3.26
8.0158e-06
2.195e-08
d
yr
n .302751415445789 2.0409e-09 deg/d
Q 2.405379058656734 1.081e-08 au
  Orbit Determination Parameters
   # obs. used (total)      457  
   data-arc span      8331 days (22.81 yr)  
   first obs. used      1997-12-28  
   last obs. used      2020-10-19  
   planetary ephem.      DE431  
   SB-pert. ephem.      SB431-N16  
   condition code      0  
   norm. resid. RMS      .62381  
   source      ORB  
   producer      Otto Matic  
   solution date      2020-Nov-12 15:49:30  

Additional Information
 Earth MOID = .98388 au 
 Jupiter MOID = 2.5633 au 
 T_jup = 3.661 
[ show covariance matrix ]

Ephemeris | Orbit Diagram | Orbital Elements | Mission Design | Physical Parameters | Discovery Circumstances ]

Physical Parameter Table
Parameter Symbol Value Units Sigma Reference Notes
absolute magnitude H 16.6   n/a MPO236902  

136846 (1997 YV14)          Discovered 1997-Dec-28 by Spacewatch at Kitt Peak
Reference: 20061205/Numbers.arcLast Updated: 2006-12-13

Alternate Designations
 1997 YV14 = 2003 UO257 
Ephemeris | Orbit Diagram | Orbital Elements | Mission Design | Physical Parameters | Discovery Circumstances ]
ABOUT SSD CREDITS/AWARDS PRIVACY/COPYRIGHT GLOSSARY LINKS
FirstGov 2020-Nov-30 17:19 UT
(server date/time)  
NASA Home Page
Site Manager:   Ryan S. Park
Webmaster  Alan B. Chamberlin